MST,Max TemperatureF,Mean TemperatureF,Min TemperatureF,Max Dew PointF,MeanDew PointF,Min DewpointF,Max Humidity, Mean Humidity, Min Humidity, Max Sea Level PressureIn, Mean Sea Level PressureIn, Min Sea Level PressureIn, Max VisibilityMiles, Mean VisibilityMiles, Min VisibilityMiles, Max Wind SpeedMPH, Mean Wind SpeedMPH, Max Gust SpeedMPH,PrecipitationIn, CloudCover, Events, WindDirDegrees
2010-10-1,102,87,71,52,45,39,38,26,14,29.94,29.87,29.81,10,10,10,15,7,18,0.00,0,,206
2010-10-2,100,85,70,61,54,43,57,39,20,30.10,29.93,29.80,10,10,7,36,9,44,T,3,Rain-Thunderstorm,215
2010-10-3,96,81,65,59,51,41,70,43,15,30.06,29.93,29.83,10,10,10,24,9,30,T,0,Rain-Thunderstorm,162
2010-10-4,90,81,71,55,51,44,53,37,21,29.96,29.91,29.85,10,10,6,36,10,43,T,1,,151
2010-10-5,89,77,64,63,57,50,87,58,28,30.07,29.96,29.85,10,10,2,26,9,36,0.23,3,Rain-Thunderstorm,164
2010-10-6,88,75,62,61,55,44,93,58,22,30.01,29.97,29.93,10,10,10,23,8,29,0.00,1,,174
2010-10-7,89,76,62,57,47,35,78,48,17,30.05,29.99,29.92,10,10,10,17,6,22,0.00,0,,208
2010-10-8,87,72,56,47,41,32,72,44,15,30.06,30.01,29.96,10,10,10,13,5,17,0.00,0,,189
2010-10-9,88,72,55,43,36,25,61,36,10,30.09,30.02,29.94,10,10,10,13,6,16,0.00,0,,182
2010-10-10,87,70,53,38,34,31,54,34,13,29.99,29.91,29.82,10,10,10,14,7,20,0.00,0,,201
2010-10-11,88,73,57,38,36,30,47,30,13,29.94,29.89,29.83,10,10,10,13,6,20,0.00,0,,154
2010-10-12,91,75,59,39,36,30,47,30,12,30.00,29.95,29.90,10,10,10,15,5,22,0.00,0,,158
2010-10-13,95,78,61,39,36,33,46,30,13,30.14,29.99,29.93,10,10,10,24,11,30,0.00,0,,117
2010-10-14,94,83,72,50,41,30,41,26,11,30.16,30.01,29.92,10,10,10,25,9,31,0.00,1,,115
2010-10-15,89,76,63,58,51,44,78,50,22,30.15,30.00,29.88,10,9,2,40,7,52,0.16,3,Rain-Thunderstorm,168
2010-10-16,86,73,60,53,50,44,78,52,25,30.10,29.97,29.89,10,10,10,17,5,24,0.00,1,,176
2010-10-17,85,74,62,54,45,33,72,45,18,30.08,29.94,29.85,10,10,10,14,6,16,0.00,0,,187
2010-10-18,82,70,58,48,42,37,62,41,20,30.06,29.89,29.79,10,10,10,13,5,17,0.00,0,,191
2010-10-19,82,70,57,49,47,45,72,49,26,29.90,29.85,29.77,10,10,10,20,6,23,0.00,0,,187
2010-10-20,73,65,57,49,45,38,64,47,30,29.99,29.93,29.88,10,10,10,16,5,24,0.00,5,,276
2010-10-21,68,61,54,54,48,43,93,69,44,30.09,29.98,29.93,10,10,8,14,3,18,0.07,5,Rain,264
2010-10-22,73,62,51,48,44,41,83,59,34,30.00,29.96,29.90,10,10,10,13,4,18,0.00,1,,195
2010-10-23,74,63,52,45,43,40,77,54,31,30.04,30.00,29.94,10,10,10,13,5,17,0.00,0,,173
2010-10-24,80,66,51,43,42,38,68,46,23,30.09,29.99,29.90,10,10,10,13,6,18,0.00,0,,171
2010-10-25,82,68,54,52,44,40,61,43,25,29.98,29.80,29.72,10,10,5,23,7,31,0.00,1,,271
2010-10-26,80,68,56,50,47,44,72,51,30,29.84,29.78,29.71,10,10,10,14,6,21,0.00,3,,242
2010-10-27,80,67,53,48,40,29,77,47,16,30.08,29.98,29.84,10,10,10,9,3,15,0.00,0,,153
2010-10-28,90,73,55,38,33,29,51,31,11,30.14,30.06,30.00,10,10,10,22,12,30,0.00,0,,123
2010-10-29,94,79,64,37,33,28,29,20,11,30.06,29.97,29.88,10,10,10,20,8,28,0.00,0,,169
2010-10-30,88,72,55,38,31,19,47,28,9,29.99,29.93,29.86,10,10,9,21,7,31,0.00,0,,207
2010-10-31,79,65,51,37,34,29,50,34,17,30.12,30.02,29.95,10,10,10,13,5,17,0.00,0,,196